Volver al catálogo

STARLINK-3595

ActivoComunicacionesVLEO
NORAD 51894·PAYLOAD·🇺🇸 United States

Lanzado Mar 3, 2022 desde Cape Canaveral Space Force Station

Loading…

Próximos Pases (próximas 24 horas)

TLE

ActualizadoSource: CelesTrak SupGP

Época: Sep 15, 2026, 01:46 UTC

1 51894C 22022AU  26258.07409722 -.00022877  00000+0 -67589-3 0  2582
2 51894  53.1567 213.4353 0001551  94.9580  85.8738 15.34402917    10

Sigue STARLINK-3595 en tiempo real con AllMySat

Download on the App Store